Regional Weather Roundup
Issued by NWS

Home | Current Version | Previous Version | Graphics & Text | Print | Product List | Glossary On
Versions: 1 2 3 4 5 6 7 8 9 10 11 12 13 14 15 16 17 18 19 20 21 22 23 24 25 26 27 28 29 30 31 32 33 34 35 36 37 38 39 40 41 42 43 44 45 46 47 48 49 50
000
ASUS43 KMPX 061710
RWRMN
WEATHER ROUNDUP FOR MINNESOTA
NATIONAL WEATHER SERVICE TWIN CITIES/CHANHASSEN MN
1200 PM CDT WED MAY 06 2015


NOTE: "FAIR" INDICATES FEW OR NO CLOUDS BELOW 12,000 FEET WITH NO
SIGNIFICANT WEATHER AND/OR OBSTRUCTIONS TO VISIBILITY. N/A MEANS
CURRENT SKY AND/OR WEATHER CONDITIONS ARE NOT AVAILABLE.

MNZ060>063-068>070-061800-
   Twin Cities Metro

CITY           SKY/WX    TMP DP  RH WIND       PRES   REMARKS
TWIN CITIES    CLOUDY    64  58  80 E16       30.01F
ST PAUL        CLOUDY    62  58  86 SE12      30.03F
CRYSTAL        CLOUDY    64  57  78 SE12      30.00F
BLAINE         CLOUDY    64  61  88 SE14      30.01F
LAKEVILLE      PTSUNNY   63  59  88 E10       30.01F
EDEN PRAIRIE   CLOUDY    64  57  78 E13       29.99F
SOUTH ST PAUL  PTSUNNY   62  58  86 SE8       30.02F
LAKE ELMO      CLOUDY    61  57  88 SE10      30.05F
$$
MNZ001>005-007-008-013>017-022>024-027-028-061800-
   Northwest Minnesota

CITY           SKY/WX    TMP DP  RH WIND       PRES   REMARKS
BEMIDJI        CLOUDY    63  54  73 SE14      29.97S
HALLOCK        CLOUDY    70  55  60 S22       29.88S
ROSEAU         CLOUDY    70  55  60 S12       29.92F
WARROAD        CLOUDY    64  55  72 SE9       29.94S
THIEF RVR FALL CLOUDY    66  54  63 S14       29.92R
CROOKSTON      LGT RAIN  61  59  94 S14       29.90F
FOSSTON        CLOUDY    66  54  63 S14       29.93F
DETROIT LAKES  CLOUDY    59  55  88 SE15      29.94F
MOORHEAD       CLOUDY    63  57  82 SE16      29.88F
PARK RAPIDS    CLOUDY    61  54  77 SE16      29.97F
MAHNOMEN       CLOUDY    62  55  77 SE12G20   29.92F
$$
MNZ006-009>011-018-025>026-061800-
   North Central Minnesota

CITY           SKY/WX    TMP DP  RH WIND       PRES   REMARKS
BAUDETTE       CLOUDY    56  52  86 SE13      29.98F
FLAG ISLAND    CLOUDY    54  46  76 SE6       29.96F
INTL FALLS     CLOUDY    58  52  80 SE12      30.01F
WASKISH        CLOUDY    66  55  68 SE7       29.97F
BIG FORK       CLOUDY    64  52  63 SE9G17    30.02S
LONGVILLE      CLOUDY    63  54  72 SE9       30.00F
GRAND RAPIDS   CLOUDY    61  48  63 SE12G18   30.03F
CRANE LAKE     CLOUDY    64  46  52 S5        30.06F
ORR            CLOUDY    63  46  55 SE9       30.02F
COOK           CLOUDY    57  48  72 SE10      30.06S
WALKER         CLOUDY    60  53  78 SE13      29.98F
$$
MNZ012-019>021-037-061800-
   Northeast Minnesota

CITY           SKY/WX    TMP DP  RH WIND       PRES   REMARKS
DULUTH         CLOUDY    53  46  77 E13       30.09S
ELY            CLOUDY    64  43  45 SE13      30.07F
HIBBING        CLOUDY    55  49  80 SE10      30.07S
EVELETH        CLOUDY    52  50  93 SE6       30.10R FOG
DULUTH HARBOR  CLOUDY    43  37  81 NE8       30.11F
TWO HARBORS    CLOUDY    52  45  76 NE7       30.09F
SILVER BAY     CLOUDY    55  34  44 NE7       30.11S
GRAND MARAIS     N/A     49  32  52 NE7       30.15F
G MARAIS ARPRT MOSUNNY   61  32  33 SE7       30.15F
$$
MNZ029>031-032-039>041-046>048-054>057-064-061800-
   West Central Minnesota

CITY           SKY/WX    TMP DP  RH WIND       PRES   REMARKS
FERGUS FALLS   CLOUDY    61  59  94 SE13      29.90F FOG
WHEATON        CLOUDY    61  57  88 SE18G26   29.89F FOG
MORRIS         CLOUDY    63  61  94 SE20      29.89F FOG
ALEXANDRIA     CLOUDY    59  56  89 E18       29.94F FOG
ELBOW LAKE     CLOUDY    60  58  92 E13G18    29.90F
WADENA         CLOUDY    57  55  94 SE13      29.95F FOG
GLENWOOD       CLOUDY    57  57 100 E18       29.95F
APPLETON       CLOUDY    64  61  88 SE14G23   29.88F FOG
BENSON         CLOUDY    63  57  82 SE16G23   29.91F HAZE
ORTONVILLE     LGT RAIN  61  59  94 SE13      29.87F
MADISON        LGT RAIN  64  61  88 SE20      29.87F
WILLMAR        FAIR      66  61  82 E22       29.94F
$$
MNZ033>034-036-042>043-049>051-058-059-061800-
   Central Minnesota

CITY           SKY/WX    TMP DP  RH WIND       PRES   REMARKS
ST CLOUD       CLOUDY    60  56  86 SE8       29.99F FOG
SAUK CENTRE    CLOUDY    59  56  89 E15       29.96F FOG
PAYNESVILLE    CLOUDY    58  56  92 E13       29.97F FOG
AITKIN         CLOUDY    64  54  68 E7        30.00F
PINE RIVER     CLOUDY    57  54  88 SE9       30.03F
BRAINERD       CLOUDY    61  54  77 SE7       30.00F
STAPLES        CLOUDY    55  54  94 E8        29.97F FOG
LONG PRAIRIE   CLOUDY    57  54  88 E14       29.97F FOG
LITTLE FALLS   CLOUDY    55  54  94 E10       29.99F FOG
LITCHFIELD     CLOUDY    66  61  82 E15       29.96F
BUFFALO        PTSUNNY   65  56  72 E13G18    29.99F
MAPLE LAKE     PTSUNNY   65  60  85 E8        30.00F
$$
MNZ037-044-045-052-053-061800-
   East Central Minnesota

CITY           SKY/WX    TMP DP  RH WIND       PRES   REMARKS
PRINCETON      CLOUDY    64  57  77 E9        30.02F
MORA           CLOUDY    59  52  77 E10G16    30.04F
CAMBRIDGE      PTSUNNY   64  54  68 SE8       30.01F
RUSH CITY      CLOUDY    59  56  88 SE3       30.04F
MOOSE LAKE     PTSUNNY   64  52  63 SE7       30.03F
HINCKLEY       CLOUDY    61  54  77 SE9       30.06S
CLOQUET        CLOUDY    54  45  71 E10       30.08S
MCGREGOR       CLOUDY    63  54  72 SE9       30.04S
$$
MNZ071>073-080-081-089-090-097-098-061800-
   Southwest Minnesota

CITY           SKY/WX    TMP DP  RH WIND       PRES   REMARKS
MONTEVIDEO     CLOUDY    66  61  82 S21       29.90F
GRANITE FALLS  CLOUDY    65  58  77 E17G28    29.90F
CANBY          CLOUDY    65  62  89 E16       29.86F FOG
MARSHALL       CLOUDY    66  55  68 SE18G24   29.87F
REDWOOD FALLS  CLOUDY    68  59  73 E20G26    29.89F
OLIVIA         CLOUDY    68  59  73 E15G25    29.91F
PIPESTONE      CLOUDY    68  59  73 SE17G25   29.84F
WINDOM         CLOUDY    72  61  68 SE18G26   29.89F
WORTHINGTON    CLOUDY    72  59  64 SE25      29.86F
JACKSON        CLOUDY    72  59  64 SE21G26   29.90F
TRACY          CLOUDY    68  61  77 SE18G25   29.88F
SLAYTON        CLOUDY    68  62  80 E21G26    29.87F
$$
MNZ065>067-074>077-082>085-091>093-061800-
   South Central Minnesota

CITY           SKY/WX    TMP DP  RH WIND       PRES   REMARKS
MANKATO        PTSUNNY   70  59  68 E18       29.96F
NEW ULM        PTSUNNY   72  57  60 SE17      29.92F
ST JAMES       PTSUNNY   73  57  56 SE17G25   29.92F
FAIRMONT       PTSUNNY   70  36  28 SE22G28   29.91F
GLENCOE        PTSUNNY   71  61  71 E16G24    29.96F
FARIBAULT      PTSUNNY   66  59  77 E14       30.00F
OWATONNA       PTSUNNY   66  57  72 SE17G23   30.00F
WASECA         PTSUNNY   64  55  72 SE17      29.99F
ALBERT LEA     CLOUDY    64  63  94 SE17      29.99F FOG
$$
MNZ078>079-086>088-094>096-061800-
   Southeast Minnesota

CITY           SKY/WX    TMP DP  RH WIND       PRES   REMARKS
ROCHESTER      PTSUNNY   66  60  81 SE16      30.04F HAZE
RED WING       PTSUNNY   63  57  82 SE12      30.03F HAZE
STANTON        PTSUNNY   67  59  73 E10       30.00F
DODGE CENTER   PTSUNNY   66  61  82 SE16      30.02F
WINONA         CLOUDY    61  57  88 E10       30.07F
AUSTIN         CLOUDY    64  61  88 SE14      30.00F FOG
PRESTON        PTSUNNY   64  58  81 SE10      30.06F HAZE
$$
ABBREVIATIONS USED IN REMARKS
   TC - TEMPERATURES IN CELSIUS
  WCI - WIND CHILL INDEX
   HX - HEAT INDEX
  VSB - VISIBILITY
$$


USA.gov is the U.S. government's official web portal to all federal, state and local government web resources and services.